User: anonymous   Login
Location: Caltech
(34.1382°N, 118.1253°W)
Time: 18:05:41
(UTC-07:00)
Language:

CZ-2C R/B - Orbit

View from above orbital plane
View from above orbital plane
View from above satellite
View from above satellite

Ground track
Ground track

The orbit data is extracted from the following two-line orbital elements,

1 36089U 09061B   15086.09315587  .00000546  00000-0  14807-3 0  9998
2 36089 098.0784 112.6222 0082953 030.0528 033.6270 14.49394376283919
Epoch (UTC): 27 March 2015 02:14:08
Eccentricity: 0.0082953
inclination: 98.0784°
perigee height: 668 km
apogee height: 786 km
right ascension of ascending node: 112.6222°
argument of perigee: 30.0528°
revolutions per day: 14.49394376
mean anomaly at epoch: 33.6270°
orbit number at epoch: 28391

The dashed part of the orbit path shows where the satellite is in the earth's shadow,  

DLR